TimeMDT,TemperatureF,Dew PointF,Humidity,Sea Level PressureIn,VisibilityMPH,Wind Direction,Wind SpeedMPH,Gust SpeedMPH,PrecipitationIn,Events,Conditions,WindDirDegrees,DateUTC
12:53 AM,63.0,41.0,45,30.03,10.0,SE,3.5,-,N/A,,Clear,140,2013-08-13 06:53:00
1:53 AM,64.0,44.1,48,30.03,10.0,SE,4.6,-,N/A,,Clear,130,2013-08-13 07:53:00
2:53 AM,57.0,43.0,59,30.05,10.0,Calm,Calm,-,N/A,,Clear,0,2013-08-13 08:53:00
3:53 AM,57.0,43.0,59,30.06,10.0,WSW,6.9,-,N/A,,Partly Cloudy,250,2013-08-13 09:53:00
4:53 AM,55.0,43.0,64,30.06,10.0,Calm,Calm,-,N/A,,Partly Cloudy,0,2013-08-13 10:53:00
5:53 AM,55.0,43.0,64,30.06,10.0,Calm,Calm,-,N/A,,Clear,0,2013-08-13 11:53:00
6:53 AM,53.1,43.0,69,30.09,10.0,South,4.6,-,N/A,,Clear,180,2013-08-13 12:53:00
7:53 AM,57.0,44.1,62,30.10,10.0,West,3.5,-,N/A,,Clear,280,2013-08-13 13:53:00
8:53 AM,62.1,44.1,52,30.10,10.0,NW,5.8,-,N/A,,Clear,310,2013-08-13 14:53:00
9:53 AM,69.1,43.0,39,30.08,10.0,Calm,Calm,-,N/A,,Clear,0,2013-08-13 15:53:00
10:53 AM,73.9,41.0,30,30.05,10.0,Calm,Calm,-,N/A,,Clear,0,2013-08-13 16:53:00
11:53 AM,79.0,41.0,26,30.04,10.0,ENE,6.9,-,N/A,,Clear,60,2013-08-13 17:53:00
12:53 PM,82.0,41.0,23,30.02,10.0,ENE,4.6,-,N/A,,Clear,60,2013-08-13 18:53:00
1:53 PM,82.9,39.9,22,29.99,10.0,Variable,3.5,-,N/A,,Clear,0,2013-08-13 19:53:00
2:53 PM,82.9,39.9,22,30.00,10.0,East,13.8,-,N/A,,Clear,100,2013-08-13 20:53:00
3:53 PM,81.0,42.1,25,30.01,10.0,East,12.7,-,N/A,,Clear,100,2013-08-13 21:53:00
4:53 PM,79.0,45.0,30,30.04,10.0,South,19.6,32.2,N/A,,Partly Cloudy,170,2013-08-13 22:53:00
5:12 PM,77.0,37.4,24,30.14,10.0,South,11.5,25.3,N/A,,Partly Cloudy,190,2013-08-13 23:12:00
5:53 PM,75.9,39.9,27,30.00,10.0,ENE,6.9,-,N/A,,Clear,60,2013-08-13 23:53:00
6:30 PM,73.4,39.2,29,30.12,10.0,WSW,16.1,24.2,N/A,,Clear,240,2013-08-14 00:30:00
6:53 PM,73.9,39.0,28,30.01,10.0,SW,17.3,23.0,N/A,,Clear,220,2013-08-14 00:53:00
7:53 PM,73.9,37.9,27,30.05,10.0,SSW,35.7,43.7,N/A,,Partly Cloudy,210,2013-08-14 01:53:00
8:53 PM,75.0,37.0,25,30.01,10.0,SSW,15.0,31.1,N/A,,Mostly Cloudy,210,2013-08-14 02:53:00
9:12 PM,71.6,39.2,31,30.18,10.0,WNW,24.2,29.9,N/A,,Mostly Cloudy,300,2013-08-14 03:12:00
9:19 PM,71.6,39.2,31,30.20,10.0,WNW,21.9,29.9,N/A,,Mostly Cloudy,300,2013-08-14 03:19:00
9:53 PM,68.0,45.0,43,30.13,10.0,WNW,9.2,-,N/A,,Partly Cloudy,300,2013-08-14 03:53:00
10:53 PM,64.9,45.0,48,30.09,10.0,NW,9.2,-,N/A,,Clear,320,2013-08-14 04:53:00
11:53 PM,64.0,45.0,50,30.08,10.0,West,9.2,-,N/A,,Mostly Cloudy,260,2013-08-14 05:53:00